Preston, Minnesota, United States (55965)
Lat: 43.67N, Lon: 92.08W
Wx Zone: MNZ095
Local Info
Past Weather Observations for Today

NOTE: This archive is for the closest National Weather Service station to Preston. Information may differ from the station used for current weather conditions.

Click here for Long-term Archive

Time Weather Temperature Dewpoint Humidity Pressure Winds Precip Visibility
12:54
Partly Cloudy
75°F / 24°C 59°F / 15°C 57% 30.01 in
(1016 mb)
W 16.1 mph
(W 26 kph)
- 10SM
12:35
Mostly Cloudy
72°F / 22°C 57°F / 14°C 61% 30.01 in
(1016 mb)
W 15 mph
(W 24 kph)
- 10SM
12:14
Mostly Cloudy
72°F / 22°C 57°F / 14°C 61% 30.01 in
(1016 mb)
NW 15 mph
(NW 24 kph)
- 10SM
11:55
Mostly Cloudy
72°F / 22°C 59°F / 15°C 65% 30.01 in
(1016 mb)
WNW 18.4 mph
(WNW 30 kph)
- 10SM
11:34
Partly Cloudy
73°F / 23°C 59°F / 15°C 61% 30.01 in
(1016 mb)
W 19.6 mph
(W 32 kph)
- 10SM
11:14
Partly Cloudy
70°F / 21°C 57°F / 14°C 64% 30.01 in
(1016 mb)
WNW 13.8 mph
(WNW 22 kph)
- 10SM
10:55
Partly Cloudy
72°F / 22°C 57°F / 14°C 61% 30.01 in
(1016 mb)
WNW 17.3 mph
(WNW 28 kph)
- 10SM
10:34
Mostly Cloudy
72°F / 22°C 59°F / 15°C 65% 30.01 in
(1016 mb)
W 17.3 mph
(W 28 kph)
- 10SM
10:15
Partly Cloudy
70°F / 21°C 59°F / 15°C 69% 30.01 in
(1016 mb)
WNW 18.4 mph
(WNW 30 kph)
- 10SM
09:55
Partly Cloudy
70°F / 21°C 59°F / 15°C 69% 30.01 in
(1016 mb)
WNW 13.8 mph
(WNW 22 kph)
- 10SM
09:34
Partly Cloudy
68°F / 20°C 59°F / 15°C 73% 30.01 in
(1016 mb)
WNW 15 mph
(WNW 24 kph)
- 10SM
09:15
Mostly Cloudy
66°F / 19°C 57°F / 14°C 73% 30.01 in
(1016 mb)
WNW 15 mph
(WNW 24 kph)
- 10SM
08:55
Mostly Cloudy
66°F / 19°C 59°F / 15°C 78% 30.01 in
(1016 mb)
W 15 mph
(W 24 kph)
- 10SM
08:34
Partly Cloudy
66°F / 19°C 59°F / 15°C 78% 30.01 in
(1016 mb)
W 13.8 mph
(W 22 kph)
- 10SM
08:15
Partly Cloudy
66°F / 19°C 57°F / 14°C 73% 30.01 in
(1016 mb)
W 12.7 mph
(W 20 kph)
- 10SM
07:55
Partly Cloudy
64°F / 18°C 57°F / 14°C 78% 29.98 in
(1015 mb)
NW 15 mph
(NW 24 kph)
- 10SM
07:34
Clear
64°F / 18°C 57°F / 14°C 78% 29.98 in
(1015 mb)
W 11.5 mph
(W 19 kph)
- 10SM
07:15
Partly Cloudy
63°F / 17°C 57°F / 14°C 83% 29.98 in
(1015 mb)
W 13.8 mph
(W 22 kph)
- 10SM
06:54
Overcast
61°F / 16°C 57°F / 14°C 88% 29.95 in
(1014 mb)
W 11.5 mph
(W 19 kph)
- 10SM
06:35
Overcast
61°F / 16°C 57°F / 14°C 88% 29.95 in
(1014 mb)
W 11.5 mph
(W 19 kph)
- 10SM
06:14
Overcast
61°F / 16°C 57°F / 14°C 88% 29.95 in
(1014 mb)
W 10.4 mph
(W 17 kph)
- 10SM
05:55
Mostly Cloudy
61°F / 16°C 57°F / 14°C 88% 29.95 in
(1014 mb)
W 12.7 mph
(W 20 kph)
- 10SM
05:35
Mostly Cloudy
61°F / 16°C 57°F / 14°C 88% 29.95 in
(1014 mb)
W 11.5 mph
(W 19 kph)
- 10SM
05:14
Overcast
61°F / 16°C 57°F / 14°C 88% 29.92 in
(1013 mb)
W 11.5 mph
(W 19 kph)
- 10SM
04:55
Overcast
59°F / 15°C 57°F / 14°C 94% 29.92 in
(1013 mb)
W 9.2 mph
(W 15 kph)
- 10SM
04:35
Mostly Cloudy
59°F / 15°C 57°F / 14°C 94% 29.92 in
(1013 mb)
W 11.5 mph
(W 19 kph)
- 7SM
04:14
Clear
59°F / 15°C 57°F / 14°C 94% 29.92 in
(1013 mb)
W 9.2 mph
(W 15 kph)
- 7SM
03:53
Partly Cloudy
61°F / 16°C 57°F / 14°C 88% 29.89 in
(1012 mb)
W 9.2 mph
(W 15 kph)
- 7SM
03:34
Mostly Cloudy
61°F / 16°C 59°F / 15°C 94% 29.89 in
(1012 mb)
WNW 8.1 mph
(WNW 13 kph)
- 7SM
03:15
Overcast
61°F / 16°C 59°F / 15°C 94% 29.89 in
(1012 mb)
W 8.1 mph
(W 13 kph)
- 7SM
02:55
Overcast
61°F / 16°C 59°F / 15°C 94% 29.89 in
(1012 mb)
WNW 10.4 mph
(WNW 17 kph)
- 10SM
02:34
Overcast
61°F / 16°C 59°F / 15°C 94% 29.89 in
(1012 mb)
W 9.2 mph
(W 15 kph)
- 10SM
02:15
Overcast
61°F / 16°C 59°F / 15°C 94% 29.86 in
(1011 mb)
SW 5.8 mph
(SW 9 kph)
- 10SM
01:54
Overcast
61°F / 16°C 59°F / 15°C 94% 29.89 in
(1012 mb)
SSW 5.8 mph
(SSW 9 kph)
- 10SM
01:35
Overcast
61°F / 16°C 57°F / 14°C 88% 29.86 in
(1011 mb)
SSW 5.8 mph
(SSW 9 kph)
- 10SM
01:14
Overcast
61°F / 16°C 57°F / 14°C 88% 29.86 in
(1011 mb)
SW 5.8 mph
(SW 9 kph)
- 10SM
00:55
Overcast
61°F / 16°C 57°F / 14°C 88% 29.86 in
(1011 mb)
SW 8.1 mph
(SW 13 kph)
- 10SM
00:34
Overcast
61°F / 16°C 57°F / 14°C 88% 29.86 in
(1011 mb)
S 4.6 mph
(S 7 kph)
- 10SM
00:15
Overcast
61°F / 16°C 57°F / 14°C 88% 29.86 in
(1011 mb)
SSE 4.6 mph
(SSE 7 kph)
- 10SM
Time Weather Temperature Dewpoint Humidity Pressure Winds Precip Visibility


Weather for websites

WeatherForYou.com, LLC is not responsible for any damages or problems caused by this service. Current weather conditions are obtained from the closest station including government and personal stations which may have varying degrees of accuracy. Weather forecasts are derived from the NOAA NDFD. Like all things, this site belongs to Jesus Christ... He just trusts us to maintain it. If you have any questions or comments email webmaster@weatherforyou.com

Copyright © 2016, WeatherForYou.com LLC. All rights reserved.